Back to catalog

HULIANWANG DIGUI-36

AliveCommunicationsPO
NORAD 64957·PAYLOAD·🇨🇳 China

Launched Jul 27, 2025 from Taiyuan Satellite Launch Center

Loading…

Next Passes (next 24 hours)

TLE

FreshSource: Space-Track

Epoch: Sep 14, 2026, 14:54 UTC

1 64957U 25159B   26257.62118883 -.00000068  00000-0 -19376-3 0  9997
2 64957  86.4914 252.2792 0002211  90.0654 270.0734 13.24403542 54969

Track HULIANWANG DIGUI-36 in real time with AllMySat

Download on the App Store